TimeCDT,TemperatureF,Dew PointF,Humidity,Sea Level PressureIn,VisibilityMPH,Wind Direction,Wind SpeedMPH,Gust SpeedMPH,PrecipitationIn,Events,Conditions,WindDirDegrees,DateUTC
12:15 AM,41.2,39.6,94,29.94,10.0,West,6.9,-,N/A,,Clear,260,2012-10-10 05:15:00
12:35 AM,40.3,38.8,95,29.94,10.0,West,5.8,-,N/A,,Clear,260,2012-10-10 05:35:00
12:55 AM,39.7,38.7,96,29.94,10.0,West,5.8,-,N/A,,Clear,260,2012-10-10 05:55:00
1:15 AM,39.2,38.3,97,29.95,10.0,West,8.1,-,N/A,,Clear,270,2012-10-10 06:15:00
1:35 AM,39.2,38.1,96,29.95,10.0,West,8.1,-,N/A,,Clear,280,2012-10-10 06:35:00
1:55 AM,38.8,37.2,94,29.96,10.0,WNW,9.2,-,N/A,,Clear,290,2012-10-10 06:55:00
2:15 AM,38.3,36.0,91,29.97,10.0,West,9.2,-,N/A,,Clear,280,2012-10-10 07:15:00
2:35 AM,37.4,35.6,93,29.97,10.0,WNW,10.4,-,N/A,,Clear,290,2012-10-10 07:35:00
2:55 AM,36.5,34.5,93,29.97,10.0,West,9.2,-,N/A,,Clear,280,2012-10-10 07:55:00
3:15 AM,36.0,33.8,92,29.97,10.0,West,8.1,-,N/A,,Clear,270,2012-10-10 08:15:00
3:35 AM,35.6,33.3,91,29.98,10.0,West,6.9,-,N/A,,Clear,270,2012-10-10 08:35:00
3:55 AM,34.9,32.9,92,29.99,10.0,West,8.1,-,N/A,,Clear,270,2012-10-10 08:55:00
4:15 AM,34.2,32.4,93,29.99,10.0,West,6.9,-,N/A,,Clear,270,2012-10-10 09:15:00
4:35 AM,33.8,32.2,94,29.99,10.0,West,5.8,-,N/A,,Clear,270,2012-10-10 09:35:00
4:55 AM,33.8,32.2,94,29.99,10.0,WNW,5.8,-,N/A,,Clear,290,2012-10-10 09:55:00
5:15 AM,33.4,32.0,94,30.00,10.0,West,9.2,-,N/A,,Clear,280,2012-10-10 10:15:00
5:35 AM,33.4,32.0,94,30.02,10.0,West,10.4,-,N/A,,Clear,280,2012-10-10 10:35:00
5:55 AM,33.3,31.8,94,30.03,10.0,West,9.2,-,N/A,,Clear,280,2012-10-10 10:55:00
6:15 AM,33.1,31.8,95,30.04,10.0,West,9.2,-,N/A,,Clear,270,2012-10-10 11:15:00
6:35 AM,33.1,31.6,94,30.05,10.0,West,11.5,-,N/A,,Clear,270,2012-10-10 11:35:00
6:55 AM,32.9,31.1,93,30.05,10.0,West,8.1,-,N/A,,Clear,280,2012-10-10 11:55:00
7:15 AM,32.9,31.1,93,30.06,10.0,West,8.1,-,N/A,,Clear,270,2012-10-10 12:15:00
7:55 AM,33.6,31.5,92,30.08,10.0,West,10.4,-,N/A,,Clear,280,2012-10-10 12:55:00
8:15 AM,34.3,32.0,91,30.09,10.0,West,9.2,-,N/A,,Clear,270,2012-10-10 13:15:00
8:35 AM,35.8,32.4,87,30.10,10.0,West,10.4,-,N/A,,Clear,270,2012-10-10 13:35:00
8:55 AM,37.0,32.7,84,30.11,10.0,West,13.8,-,N/A,,Clear,280,2012-10-10 13:55:00
9:15 AM,38.3,32.5,80,30.12,10.0,West,17.3,-,N/A,,Clear,280,2012-10-10 14:15:00
9:35 AM,39.7,32.9,77,30.13,10.0,WNW,16.1,20.7,N/A,,Clear,300,2012-10-10 14:35:00
9:55 AM,40.6,33.1,74,30.13,10.0,WNW,13.8,18.4,N/A,,Clear,300,2012-10-10 14:55:00
10:15 AM,41.9,32.4,69,30.13,10.0,WNW,16.1,-,N/A,,Clear,290,2012-10-10 15:15:00
10:35 AM,42.4,32.0,67,30.13,10.0,WNW,15.0,20.7,N/A,,Clear,290,2012-10-10 15:35:00
10:55 AM,43.3,32.0,64,30.14,10.0,WNW,17.3,24.2,N/A,,Clear,300,2012-10-10 15:55:00
11:15 AM,45.3,32.4,61,30.14,10.0,NW,16.1,-,N/A,,Mostly Cloudy,310,2012-10-10 16:15:00
11:55 AM,46.0,30.2,54,30.15,10.0,WNW,16.1,20.7,N/A,,Scattered Clouds,290,2012-10-10 16:55:00
12:15 PM,46.8,29.7,51,30.15,10.0,WNW,18.4,24.2,N/A,,Clear,300,2012-10-10 17:15:00
12:35 PM,46.4,29.7,52,30.14,10.0,WNW,15.0,23.0,N/A,,Mostly Cloudy,300,2012-10-10 17:35:00
12:55 PM,47.8,30.6,51,30.14,10.0,West,13.8,19.6,N/A,,Overcast,270,2012-10-10 17:55:00
1:15 PM,47.7,29.5,49,30.13,10.0,WNW,20.7,25.3,N/A,,Mostly Cloudy,290,2012-10-10 18:15:00
1:35 PM,49.8,29.7,46,30.14,10.0,West,19.6,28.8,N/A,,Overcast,280,2012-10-10 18:35:00
1:55 PM,48.0,28.9,48,30.14,10.0,West,17.3,24.2,N/A,,Mostly Cloudy,280,2012-10-10 18:55:00
2:15 PM,49.5,29.8,47,30.14,10.0,WNW,12.7,-,N/A,,Mostly Cloudy,300,2012-10-10 19:15:00
2:35 PM,50.0,29.1,45,30.14,10.0,West,18.4,26.5,N/A,,Mostly Cloudy,280,2012-10-10 19:35:00
2:55 PM,49.5,29.1,46,30.14,10.0,West,16.1,-,N/A,,Scattered Clouds,280,2012-10-10 19:55:00
3:15 PM,49.1,28.8,45,30.13,10.0,West,13.8,24.2,N/A,,Mostly Cloudy,270,2012-10-10 20:15:00
3:35 PM,51.4,28.6,41,30.12,10.0,West,16.1,20.7,N/A,,Scattered Clouds,280,2012-10-10 20:35:00
3:55 PM,51.1,27.9,41,30.12,10.0,West,16.1,23.0,N/A,,Scattered Clouds,280,2012-10-10 20:55:00
4:15 PM,51.1,27.5,40,30.12,10.0,West,15.0,21.9,N/A,,Scattered Clouds,280,2012-10-10 21:15:00
4:35 PM,51.1,27.5,40,30.12,10.0,WNW,15.0,23.0,N/A,,Clear,290,2012-10-10 21:35:00
4:55 PM,50.5,27.9,42,30.12,10.0,West,11.5,-,N/A,,Clear,280,2012-10-10 21:55:00
5:15 PM,50.4,28.2,42,30.12,10.0,West,12.7,-,N/A,,Clear,280,2012-10-10 22:15:00
5:35 PM,49.5,28.2,44,30.13,10.0,West,12.7,-,N/A,,Clear,280,2012-10-10 22:35:00
5:55 PM,48.2,27.7,45,30.13,10.0,West,9.2,-,N/A,,Clear,280,2012-10-10 22:55:00
6:35 PM,42.8,28.9,58,30.14,10.0,West,5.8,-,N/A,,Clear,270,2012-10-10 23:35:00
6:55 PM,41.0,29.3,63,30.15,10.0,West,5.8,-,N/A,,Clear,270,2012-10-10 23:55:00
7:15 PM,38.1,29.7,72,30.16,10.0,WSW,4.6,-,N/A,,Clear,250,2012-10-11 00:15:00
7:35 PM,38.7,29.1,69,30.16,10.0,WSW,4.6,-,N/A,,Clear,250,2012-10-11 00:35:00
7:55 PM,37.0,29.3,74,30.16,10.0,SW,6.9,-,N/A,,Clear,230,2012-10-11 00:55:00
8:15 PM,34.0,29.1,82,30.16,10.0,Calm,Calm,-,N/A,,Clear,0,2012-10-11 01:15:00
8:35 PM,32.2,28.8,87,30.16,10.0,SSE,3.5,-,N/A,,Clear,160,2012-10-11 01:35:00
8:55 PM,32.0,28.4,87,30.17,10.0,South,4.6,-,N/A,,Clear,170,2012-10-11 01:55:00
9:15 PM,31.5,28.4,88,30.17,10.0,SSE,3.5,-,N/A,,Clear,150,2012-10-11 02:15:00
9:35 PM,30.0,28.2,93,30.18,10.0,Calm,Calm,-,N/A,,Clear,0,2012-10-11 02:35:00
9:55 PM,30.2,28.0,92,30.17,10.0,SSE,5.8,-,N/A,,Clear,160,2012-10-11 02:55:00
10:15 PM,30.4,27.5,89,30.16,10.0,South,6.9,-,N/A,,Clear,170,2012-10-11 03:15:00
10:35 PM,30.2,27.7,90,30.16,10.0,South,4.6,-,N/A,,Clear,170,2012-10-11 03:35:00
10:55 PM,30.2,27.9,91,30.16,10.0,SSE,4.6,-,N/A,,Clear,150,2012-10-11 03:55:00
11:15 PM,30.6,27.5,88,30.16,10.0,SSE,3.5,-,N/A,,Clear,150,2012-10-11 04:15:00
11:35 PM,29.3,27.0,91,30.16,10.0,SSE,5.8,-,N/A,,Clear,160,2012-10-11 04:35:00
11:55 PM,28.4,26.8,94,30.16,10.0,SSE,5.8,-,N/A,,Clear,160,2012-10-11 04:55:00